This demonstration page uses our WeatherBlox Daily Observations layout. Learn more.

Left ArrowRight Arrow

40.92945, -100.16068

Hourly Observations for April 27, 2015

Temp ( °F °C ) Dew Point ( °F °C ) Humidity (%) Winds ( mph kmh ) Pressure ( in mb ) Visibility ( mi km ) Precip ( " mm )
12:15 am 00:15 Clear 43 6.2 39 3.9 85 85 NNE 6 9 30.15 1021 10 16 N/A
12:35 am 00:35 Clear 42 5.5 38 3.4 87 87 NNE 5 7 30.15 1021 10 16 N/A
12:55 am 00:55 Clear 40 4.7 37 3 89 89 NNE 3 6 30.15 1021 10 16 N/A
1:15 am 01:15 Clear 40 4.6 37 2.9 89 89 NNE 3 6 30.15 1021 10 16 N/A
1:35 am 01:35 Clear 40 4.3 37 2.7 89 89 N 5 7 30.18 1022 7 11 N/A
1:55 am 01:55 Clear 39 3.9 36 2.3 89 89 N N/A 30.18 1022 7 11 N/A
2:15 am 02:15 Clear 40 4.2 37 2.8 91 91 N N/A 30.18 1022 7 11 N/A
2:35 am 02:35 Clear 38 3.1 35 1.6 90 90 W 3 6 30.18 1022 7 11 N/A
2:55 am 02:55 Clear 38 3.3 35 1.9 91 91 NW 3 6 30.18 1022 7 11 N/A
3:15 am 03:15 Clear with Mist and Fog 37 2.6 35 1.5 93 93 WNW 6 9 30.18 1022 5 8 N/A
3:35 am 03:35 Clear with Mist and Fog 36 2.4 34 1.2 92 92 WNW 6 9 30.18 1022 5 8 N/A
3:55 am 03:55 Clear with Mist and Fog 35 1.9 33 0.7 92 92 NW 6 9 30.18 1022 5 8 N/A
4:15 am 04:15 Clear with Mist and Fog 35 1.5 33 0.5 93 93 NW 6 9 30.18 1022 4 6 N/A
4:35 am 04:35 Clear with Mist and Fog 34 0.9 32 undefined 94 94 NNW 6 9 30.21 1023 5 8 N/A
4:55 am 04:55 Clear with Mist and Fog 34 0.9 32 undefined 94 94 NNW 3 6 30.21 1023 5 8 N/A
5:15 am 05:15 Clear 33 0.7 32 undefined 95 95 N N/A 30.24 1024 7 11 N/A
5:35 am 05:35 Clear with Mist and Fog 33 0.4 31 -0.4 94 94 WNW 3 6 30.27 1025 5 8 N/A
5:55 am 05:55 Clear with Mist and Fog 33 0.6 32 undefined 96 96 WNW 3 6 30.27 1025 5 8 N/A
6:15 am 06:15 Clear 33 0.5 32 -0.2 95 95 WNW 5 7 30.27 1025 7 11 N/A
6:35 am 06:35 Clear with Mist and Fog 32 0.2 31 -0.4 96 96 NW 6 9 30.27 1025 5 8 N/A
6:55 am 06:55 Sunny with Mist and Fog 32 0.2 31 -0.4 96 96 NNW 6 9 30.27 1025 4 6 N/A
7:15 am 07:15 Sunny with Mist and Fog 33 0.7 32 undefined 95 95 NNW 5 7 30.27 1025 4 6 N/A
7:35 am 07:35 Sunny with Mist and Fog 35 1.7 33 0.8 94 94 N N/A 30.27 1025 5 8 N/A
7:55 am 07:55 Sunny with Mist and Fog 37 2.5 35 1.5 93 93 N 3 6 30.27 1025 5 8 N/A
8:15 am 08:15 Sunny 39 3.9 37 2.8 93 93 N N/A 30.27 1025 7 11 N/A
8:35 am 08:35 Sunny 43 6.2 41 4.8 91 91 NNE 6 9 30.24 1024 10 16 N/A
8:55 am 08:55 Sunny 46 7.6 42 5.3 86 86 NNE 8 13 30.24 1024 10 16 N/A
9:15 am 09:15 Sunny 47 8.5 42 5.4 81 81 N 7 11 30.21 1023 10 16 N/A
9:35 am 09:35 Sunny 49 9.7 42 5.8 77 77 NNE 7 11 30.21 1023 10 16 N/A
9:55 am 09:55 Sunny 52 10.9 42 5.4 69 69 NE 8 13 30.21 1023 10 16 N/A
10:15 am 10:15 Sunny 53 11.5 40 4.4 62 62 NNE 7 11 30.18 1022 10 16 N/A
10:35 am 10:35 Sunny 55 12.5 40 4.3 58 58 NE 7 11 30.18 1022 10 16 N/A
10:55 am 10:55 Sunny 55 13 38 3.6 53 53 NE 6 9 30.21 1023 10 16 N/A
11:15 am 11:15 Sunny 56 13.5 40 4.3 54 54 NE 12 19 30.21 1023 10 16 N/A
11:35 am 11:35 Sunny 57 14 38 3.5 49 49 NNE 12 19 30.21 1023 10 16 N/A
11:55 am 11:55 Sunny 58 14.4 38 3.6 49 49 NE 14 22 30.21 1023 10 16 N/A
12:15 pm 12:15 Sunny 58 14.6 38 3.3 47 47 NNE 10 17 30.21 1023 10 16 N/A
12:35 pm 12:35 Sunny 59 15 37 3 45 45 NE 7 11 30.21 1023 10 16 N/A
12:55 pm 12:55 Sunny 60 15.6 38 3.1 43 43 ENE 10 17 30.15 1021 10 16 N/A
1:15 pm 13:15 Sunny 61 16 37 2.7 41 41 NE 15 24 30.15 1021 10 16 N/A
1:35 pm 13:35 Sunny 61 16 37 2.8 41 41 ENE 10 17 30.15 1021 10 16 N/A
1:55 pm 13:55 Sunny 61 16.2 37 3 41 41 ENE 12 19 30.15 1021 10 16 N/A
2:15 pm 14:15 Sunny 63 17 38 3.2 40 40 NNE 14 22 30.15 1021 10 16 N/A
2:35 pm 14:35 Sunny 63 17.1 38 3.2 40 40 NE 13 20 30.12 1020 10 16 N/A
2:55 pm 14:55 Sunny 63 17.1 38 3.1 39 39 NE 14 22 30.12 1020 10 16 N/A
3:15 pm 15:15 Sunny 63 17.4 38 3.1 39 39 NE 13 20 30.12 1020 10 16 N/A
3:35 pm 15:35 Sunny 64 17.6 35 1.8 35 35 ENE 12 19 30.09 1019 10 16 N/A
3:55 pm 15:55 Sunny 64 18 37 2.6 36 36 NNE 8 13 30.09 1019 10 16 N/A
4:15 pm 16:15 Sunny 64 17.8 37 2.8 37 37 NE 15 24 30.06 1018 10 16 N/A
4:35 pm 16:35 Sunny 64 17.5 37 2.8 38 38 NNE 13 20 30.06 1018 10 16 N/A
4:55 pm 16:55 Sunny 64 17.5 36 2.4 37 37 NNE 10 17 30.06 1018 10 16 N/A
5:15 pm 17:15 Sunny 64 17.8 36 2.2 35 35 NE 10 17 30.06 1018 10 16 N/A
5:35 pm 17:35 Sunny 64 18 36 2.4 35 35 NE 15 24 30.06 1018 10 16 N/A
5:55 pm 17:55 Sunny 64 18 35 1.7 34 34 NE 12 19 30.06 1018 10 16 N/A
6:15 pm 18:15 Sunny 64 18 35 1.7 34 34 NE 9 15 30.06 1018 10 16 N/A
6:35 pm 18:35 Sunny 64 17.5 35 1.5 34 34 NE 12 19 30.06 1018 10 16 N/A
6:55 pm 18:55 Sunny 63 17.2 35 1.4 35 35 NNE 12 19 30.09 1019 10 16 N/A
7:15 pm 19:15 Sunny 62 16.6 36 2.2 38 38 NE 9 15 30.09 1019 10 16 N/A
7:35 pm 19:35 Sunny 61 16 37 2.6 41 41 NE 8 13 30.09 1019 10 16 N/A
7:55 pm 19:55 Sunny 59 14.8 37 3 45 45 NE 7 11 30.09 1019 10 16 N/A
8:15 pm 20:15 Sunny 56 13.5 37 2.5 48 48 NE 7 11 30.15 1021 10 16 N/A
8:35 pm 20:35 Clear 55 12.5 36 2 49 49 NE 8 13 30.15 1021 10 16 N/A
8:55 pm 20:55 Clear 53 11.6 35 1.9 52 52 NNE 7 11 30.15 1021 10 16 N/A
9:15 pm 21:15 Clear 51 10.3 35 1.9 56 56 NNE 7 11 30.18 1022 10 16 N/A
9:35 pm 21:35 Clear 51 10.4 35 1.6 55 55 NNE 8 13 30.21 1023 10 16 N/A
9:55 pm 21:55 Clear 50 9.8 34 1.3 56 56 NNE 8 13 30.21 1023 10 16 N/A
10:15 pm 22:15 Clear 49 9.2 34 1 57 57 NE 8 13 30.21 1023 10 16 N/A
10:35 pm 22:35 Clear 48 9 33 0.8 57 57 NE 7 11 30.21 1023 10 16 N/A
10:55 pm 22:55 Clear 46 7.7 33 0.6 61 61 NE 7 11 30.24 1024 10 16 N/A
11:15 pm 23:15 Clear 46 7.6 33 0.6 62 62 N N/A 30.24 1024 10 16 N/A
11:35 pm 23:35 Clear 44 6.5 33 0.7 67 67 NNE 3 6 30.24 1024 10 16 N/A
11:55 pm 23:55 Clear 41 4.8 33 0.8 76 76 N N/A 30.30 1026 10 16 N/A

Powered by AerisWeather